datetime,gage height
2010-12-16,237.41
2010-12-17,236.969167
2010-12-18,237.426667
2010-12-19,237.471667
2010-12-20,237.296667
2010-12-21,236.748333
2010-12-22,235.816667
2010-12-23,235.77875
2010-12-24,235.84375
2010-12-25,236.220417
2010-12-26,236.27875
2010-12-27,236.204583
2010-12-28,235.8325
2010-12-29,235.60875
2010-12-30,235.991739
2010-12-31,236.715
2011-01-01,237.556667
2011-01-02,237.673333
2011-01-03,237.185
2011-01-04,237.229167
2011-01-05,237.21125
2011-01-06,237.0725
2011-01-07,236.777917
2011-01-08,236.635417
2011-01-09,237.087083
2011-01-10,237.324167
2011-01-11,237.409583
2011-01-12,237.247916
2011-01-13,237.125417
2011-01-14,236.677083
2011-01-15,237.288333
2011-01-16,237.830416
2011-01-17,238.244167
2011-01-18,238.789583
2011-01-19,238.706667
2011-01-20,238.489583
2011-01-21,238.04875
2011-01-22,239.156667
2011-01-23,239.327083
2011-01-24,239.455417
2011-01-25,239.154167
2011-01-26,238.2725
2011-01-27,237.965833
2011-01-28,238.097083
2011-01-29,238.944167
2011-01-30,239.226666
2011-01-31,238.9275
2011-02-01,238.37625
2011-02-02,238.522917
2011-02-03,238.6475
2011-02-04,238.4525
2011-02-05,238.350417
2011-02-06,238.04375
2011-02-07,238.4525
2011-02-08,238.744583
2011-02-09,238.9825
2011-02-10,238.796667
2011-02-11,238.375417
2011-02-12,238.612917
2011-02-13,239.033333
2011-02-14,238.974167
2011-02-15,238.17875
2011-02-16,237.947917
2011-02-17,238.168333
2011-02-18,238.608333
2011-02-19,239.445833
2011-02-20,239.484583
2011-02-21,239.296667
2011-02-22,238.554583
2011-02-23,238.120417
2011-02-24,237.222917
2011-02-25,237.295417
2011-02-26,238.635417
2011-02-27,238.921667
2011-02-28,238.924583
2011-03-01,240.250417
2011-03-02,241.089167
2011-03-03,240.639167
2011-03-04,239.790833
2011-03-05,239.94375
2011-03-06,240.121667
2011-03-07,240.13375
2011-03-08,239.783333
2011-03-09,239.83125
2011-03-10,240.199167
2011-03-11,239.776667
2011-03-12,241.060292
2011-03-13,241.391333
2011-03-14,240.961375
2011-03-15,240.833625
2011-03-16,240.376792
2011-03-17,240.014167
2011-03-18,239.775
2011-03-19,240.0425
2011-03-20,240.165417
2011-03-21,240.075
2011-03-22,240.1025
2011-03-23,240.3125
2011-03-24,239.735
2011-03-25,239.417917
2011-03-26,240.08625
2011-03-27,240.587917
2011-03-28,240.55875
2011-03-29,240.689167
2011-03-30,240.877083
2011-03-31,240.887917
2011-04-01,240.780834
2011-04-02,241.790834
2011-04-03,241.825833
2011-04-04,241.64375
2011-04-05,241.562916
2011-04-06,241.887917
2011-04-07,241.37875
2011-04-08,241.137917
2011-04-09,241.72875
2011-04-10,241.540417
2011-04-11,241.489167
2011-04-12,241.277917
2011-04-13,241.125833
2011-04-14,240.422083
2011-04-15,239.310833
2011-04-16,240.653334
2011-04-17,241.510833
2011-04-18,241.458333
2011-04-19,241.35875
2011-04-20,241.362917
2011-04-21,241.079625
2011-04-22,239.7875
2011-04-23,241.402917
2011-04-24,241.203333
2011-04-25,241.1425
2011-04-26,241.047458
2011-04-27,240.6575
2011-04-28,239.735
2011-04-29,239.697917
2011-04-30,240.40375
2011-05-01,240.514167
2011-05-02,240.589167
2011-05-03,240.76875
2011-05-04,240.988333
2011-05-05,240.78
2011-05-06,240.305417
2011-05-07,240.955
2011-05-08,241.24625
2011-05-09,241.093333
2011-05-10,240.635
2011-05-11,240.24625
2011-05-12,239.875
2011-05-13,239.11875
2011-05-14,239.635
2011-05-15,240.182917
2011-05-16,240.092083
2011-05-17,239.75375
2011-05-18,239.751667
2011-05-19,239.4625
2011-05-20,238.87625
2011-05-21,239.78625
2011-05-22,239.889167
2011-05-23,239.745417
2011-05-24,239.807083
2011-05-25,239.47625
2011-05-26,238.940833
2011-05-27,238.663333
2011-05-28,239.677083
2011-05-29,240.08625
2011-05-30,239.950417
2011-05-31,239.714167
2011-06-01,239.411667
2011-06-02,239.374167
2011-06-03,238.79875
2011-06-04,240.09
2011-06-05,240.205417
2011-06-06,240.169583
2011-06-07,240.423333
2011-06-08,240.310833
2011-06-09,239.356667
2011-06-10,238.843333
2011-06-11,240.245417
2011-06-12,240.119167
2011-06-13,240.24125
2011-06-14,240.175833
2011-06-15,239.764583
2011-06-16,239.407083
2011-06-17,238.83375
2011-06-18,240.422083
2011-06-19,240.33375
2011-06-20,240.464167
2011-06-21,240.549583
2011-06-22,240.855
2011-06-23,240.102917
2011-06-24,239.57
2011-06-25,241.241667
2011-06-26,240.865
2011-06-27,241.032083
2011-06-28,240.721667
2011-06-29,240.347083
2011-06-30,240.072917
2011-07-01,239.8675
2011-07-02,241.109583
2011-07-03,241.21
2011-07-04,240.9525
2011-07-05,240.961833
2011-07-06,241.293333
2011-07-07,240.5075
2011-07-08,239.799583
2011-07-09,240.356667
2011-07-10,240.335417
2011-07-11,240.119167
2011-07-12,239.87125
2011-07-13,239.415
2011-07-14,239.75375
2011-07-15,239.9725
2011-07-16,240.70375
2011-07-17,240.769167
2011-07-18,240.97125
2011-07-19,240.84375
2011-07-20,240.754583
2011-07-21,240.321667
2011-07-22,240.0825
2011-07-23,240.608333
2011-07-24,240.9075
2011-07-25,240.82125
2011-07-26,240.442083
2011-07-27,240.209167
2011-07-28,239.66125
2011-07-29,239.390833
2011-07-30,240.050417
2011-07-31,240.132083
2011-08-01,240.01625
2011-08-02,240.08875
2011-08-03,240.018333
2011-08-04,239.554583
2011-08-05,238.959167
2011-08-06,240.019583
2011-08-07,240.133333
2011-08-08,240.236667
2011-08-09,240.007083
2011-08-10,239.784167
2011-08-11,239.233833
2011-08-12,238.320417
2011-08-13,239.52
2011-08-14,239.88375
2011-08-15,239.929167
2011-08-16,239.710417
2011-08-17,239.638333
2011-08-18,239.278333
2011-08-19,238.881667
2011-08-20,239.554167
2011-08-21,239.748333
2011-08-22,239.814167
2011-08-23,240.04875
2011-08-24,239.639167
2011-08-25,239.302083
2011-08-26,238.610833
2011-08-27,239.16375
2011-08-28,239.405833
2011-08-29,239.595417
2011-08-30,239.590417
2011-08-31,239.444583
2011-09-01,239.325375
2011-09-02,238.475
2011-09-03,239.490833
2011-09-04,239.566667
2011-09-05,239.32125
2011-09-06,238.837083
2011-09-07,238.855833
2011-09-08,238.353333
2011-09-09,237.90375
2011-09-10,238.675
2011-09-11,239.138333
2011-09-12,239.403333
2011-09-13,239.57
2011-09-14,239.642083
2011-09-15,238.69125
2011-09-16,237.629583
2011-09-17,238.5725
2011-09-18,238.882917
2011-09-19,239.1975
2011-09-20,239.019167
2011-09-21,239.061667
2011-09-22,238.810833
2011-09-23,237.715
2011-09-24,238.946667
2011-09-25,238.985833
2011-09-26,239.131667
2011-09-27,239.265833
2011-09-28,239.745833
2011-09-29,239.593333
2011-09-30,238.445
2011-10-01,239.126667
2011-10-02,239.24125
2011-10-03,239.36375
2011-10-04,239.164583
2011-10-05,238.760417
2011-10-06,238.3075
2011-10-07,237.94375
2011-10-08,238.262083
2011-10-09,238.6075
2011-10-10,238.830417
2011-10-11,238.969583
2011-10-12,239.22875
2011-10-13,238.9275
2011-10-14,237.935833
2011-10-15,238.617083
2011-10-16,238.70125
2011-10-17,238.874167
2011-10-18,238.816667
2011-10-19,238.690833
2011-10-20,238.354583
2011-10-21,237.604583
2011-10-22,238.46625
2011-10-23,238.657083
2011-10-24,238.743458
2011-10-25,238.363333
2011-10-26,238.329167
2011-10-27,237.835417
2011-10-28,237.3125
2011-10-29,238.300833
2011-10-30,238.715
2011-10-31,238.787083
2011-11-01,238.43125
2011-11-02,238.079167
2011-11-03,237.70625
2011-11-04,237.352083
2011-11-05,238.069167
2011-11-06,238.362083
2011-11-07,238.38375
2011-11-08,237.9425
2011-11-09,237.49125
2011-11-10,237.414583
2011-11-11,237.138333
2011-11-12,237.41875
2011-11-13,237.39875
2011-11-14,237.390417
2011-11-15,237.439583
2011-11-16,237.330417
2011-11-17,237.169583
2011-11-18,236.56625
2011-11-19,237.045
2011-11-20,237.006667
2011-11-21,237.292917
2011-11-22,237.185
2011-11-23,237.29375
2011-11-24,237.48875
2011-11-25,237.412083
2011-11-26,237.56875
2011-11-27,237.707083
2011-11-28,237.894583
2011-11-29,238.112917
2011-11-30,238.50875
2011-12-01,238.127083
2011-12-02,237.522083
2011-12-03,237.735
2011-12-04,237.877917
2011-12-05,238.03875
2011-12-06,238.395417
2011-12-07,238.39
2011-12-08,238.227917
2011-12-09,237.104167
2011-12-10,237.656667
2011-12-11,237.6725
2011-12-12,237.49375
2011-12-13,237.225833
2011-12-14,236.54875
2011-12-15,236.4075
2011-12-16,235.822083
2011-12-17,236.353334
2011-12-18,236.634583
2011-12-19,236.89625
2011-12-20,236.385833
2011-12-21,235.68375
2011-12-22,235.36375
2011-12-23,235.118333
2011-12-24,236.2175
2011-12-25,236.816667
2011-12-26,236.485
2011-12-27,236.014583
2011-12-28,235.969167
2011-12-29,236.25875
2011-12-30,236.965417
2011-12-31,237.405417
2012-01-01,237.56
2012-01-02,237.769583
2012-01-03,237.933333
2012-01-04,237.607083
2012-01-05,237.362917
2012-01-06,236.958333
2012-01-07,237.442083
2012-01-08,237.290833
2012-01-09,237.73125
2012-01-10,237.33125
2012-01-11,237.110417
2012-01-12,237.579583
2012-01-13,237.097083
2012-01-14,237.462083
2012-01-15,237.999167
2012-01-16,237.9725
2012-01-17,238.030833
2012-01-18,237.901667
2012-01-19,237.4225
2012-01-20,237.64125
2012-01-21,238.18125
2012-01-22,238.3525
2012-01-23,238.536667
2012-01-24,238.414167
2012-01-25,238.1375
2012-01-26,237.92625
2012-01-27,237.519583
2012-01-28,237.9825
2012-01-29,238.266667
2012-01-30,238.704583
2012-01-31,238.680833
2012-02-01,238.557083
2012-02-02,238.2025
2012-02-03,237.6475
2012-02-04,238.16875
2012-02-05,238.52375
2012-02-06,238.66125
2012-02-07,238.504583
2012-02-08,238.575833
2012-02-09,238.184583
2012-02-10,237.6225
2012-02-11,238.421667
2012-02-12,238.907917
2012-02-13,239.00625
2012-02-14,238.868333
2012-02-15,238.798333
2012-02-16,238.88375
2012-02-17,237.939583
2012-02-18,238.573333
2012-02-19,238.6175
2012-02-20,238.779583
2012-02-21,238.635833
2012-02-22,239.06625
2012-02-23,239.214583
2012-02-24,238.541667
2012-02-25,239.490417
2012-02-26,240.238333
2012-02-27,240.26
2012-02-28,240.059167
2012-02-29,240.302083
2012-03-01,240.685
2012-03-02,239.44
2012-03-03,239.833333
2012-03-04,240.05875
2012-03-05,240.00125
2012-03-06,239.95125
2012-03-07,240.136667
2012-03-08,239.8925
2012-03-09,239.542917
2012-03-10,239.974583
2012-03-11,240.2825
2012-03-12,240.50625
2012-03-13,240.454167
2012-03-14,241.0075
2012-03-15,240.835417
2012-03-16,239.6425
2012-03-17,240.125
2012-03-18,240.372917
2012-03-19,240.662083
2012-03-20,240.46625
2012-03-21,240.5
2012-03-22,240.50375
2012-03-23,239.683333
2012-03-24,240.09125
2012-03-25,240.337917
2012-03-26,240.6225
2012-03-27,240.573333
2012-03-28,240.8225
2012-03-29,240.89125
2012-03-30,240.199167
2012-03-31,240.925833
2012-04-01,241.461667
2012-04-02,241.54
2012-04-03,241.715833
2012-04-04,241.790833
2012-04-05,241.733333
2012-04-06,239.964167
2012-04-07,241.133333
2012-04-08,241.17
2012-04-09,241.13875
2012-04-10,240.79125
2012-04-11,240.779583
2012-04-12,240.5475
2012-04-13,239.967083
2012-04-14,240.594167
2012-04-15,241.175
2012-04-16,241.72125
2012-04-17,241.3275
2012-04-18,241.222083
2012-04-19,241.735
2012-04-20,239.806667
2012-04-21,240.872917
2012-04-22,241.299583
2012-04-23,241.540833
2012-04-24,241.67125
2012-04-25,241.60125
2012-04-26,241.724167
2012-04-27,239.879583
2012-04-28,240.896667
2012-04-29,240.916667
2012-04-30,240.86625
2012-05-01,240.873333
2012-05-02,240.558333
2012-05-03,240.637083
2012-05-04,239.890833
2012-05-05,240.04
2012-05-06,240.37875
2012-05-07,240.375
2012-05-08,240.291667
2012-05-09,240.329167
2012-05-10,240.1575
2012-05-11,239.594167
2012-05-12,240.064167
2012-05-13,240.495
2012-05-14,240.842083
2012-05-15,240.75375
2012-05-16,240.6625
2012-05-17,239.840833
2012-05-18,238.650833
2012-05-19,239.36
2012-05-20,239.874583
2012-05-21,240.022917
2012-05-22,240.33
2012-05-23,240.345417
2012-05-24,239.81375
2012-05-25,238.810833
2012-05-26,239.552917
2012-05-27,239.837917
2012-05-28,239.92875
2012-05-29,240.140417
2012-05-30,239.855417
2012-05-31,239.539583
2012-06-01,238.579167
2012-06-02,239.410833
2012-06-03,239.639583
2012-06-04,239.925417
2012-06-05,240.024167
2012-06-06,240.23625
2012-06-07,240.202917
2012-06-08,239.2425
2012-06-09,239.33375
2012-06-10,240.055417
2012-06-11,240.1575
2012-06-12,240.14375
2012-06-13,240.174583
2012-06-14,239.657083
2012-06-15,239.117083
2012-06-16,239.867917
2012-06-17,240.489167
2012-06-18,240.5525
2012-06-19,240.467083
2012-06-20,240.22375
2012-06-21,240.342917
2012-06-22,239.47125
2012-06-23,239.887083
2012-06-24,240.270833
2012-06-25,240.543333
2012-06-26,240.745417
2012-06-27,241.023333
2012-06-28,240.997917
2012-06-29,239.680833
2012-06-30,240.13125
2012-07-01,240.617917
2012-07-02,240.673333
2012-07-03,240.7375
2012-07-04,240.759167
2012-07-05,240.391667
2012-07-06,239.534167
2012-07-07,239.97
2012-07-08,240.1275
2012-07-09,240.314167
2012-07-10,240.3175
2012-07-11,240.202083
2012-07-12,239.910833
2012-07-13,239.505417
2012-07-14,240.192083
2012-07-15,239.9475
2012-07-16,239.294583
2012-07-17,238.886667
2012-07-18,239.027917
2012-07-19,239.022917
2012-07-20,238.88125
2012-07-21,239.440417
2012-07-22,239.762917
2012-07-23,240.02125
2012-07-24,240.100833
2012-07-25,240.14
2012-07-26,239.624583
2012-07-27,238.977917
2012-07-28,239.42625
2012-07-29,239.612917
2012-07-30,239.47375
2012-07-31,239.605417
2012-08-01,239.299167
2012-08-02,237.92375
2012-08-03,237.484167
2012-08-04,238.279167
2012-08-05,238.104583
2012-08-06,238.355417
2012-08-07,238.64125
2012-08-08,239.5025
2012-08-09,239.462083
2012-08-10,238.719583
2012-08-11,239.203333
2012-08-12,239.473333
2012-08-13,240.02625
2012-08-14,239.436667
2012-08-15,239.372917
2012-08-16,238.99375
2012-08-17,238.343333
2012-08-18,238.754167
2012-08-19,239.119167
2012-08-20,239.7225
2012-08-21,239.025417
2012-08-22,238.81875
2012-08-23,238.79875
2012-08-24,237.785833
2012-08-25,238.165417
2012-08-26,238.696667
2012-08-27,238.514167
2012-08-28,238.42
2012-08-29,238.524583
2012-08-30,238.650417
2012-08-31,238.355417
2012-09-01,238.755417
2012-09-02,239.35375
2012-09-03,239.495417
2012-09-04,239.118333
2012-09-05,238.704167
2012-09-06,238.475
2012-09-07,237.786667
2012-09-08,238.7525
2012-09-09,239.121667
2012-09-10,239.0175
2012-09-11,238.572083
2012-09-12,238.428333
2012-09-13,238.09
2012-09-14,237.468333
2012-09-15,238.034167
2012-09-16,238.627083
2012-09-17,238.99875
2012-09-18,239.077083
2012-09-19,238.911667
2012-09-20,238.55875
2012-09-21,238.048333
2012-09-22,238.505417
2012-09-23,239.249583
2012-09-24,239.41375
2012-09-25,239.589167
2012-09-26,239.600833
2012-09-27,239.705417
2012-09-28,239.054583
2012-09-29,239.084583
2012-09-30,239.30625
2012-10-01,239.11625
2012-10-02,238.848333
2012-10-03,238.81875
2012-10-04,238.477083
2012-10-05,238.2175
2012-10-06,238.852083
2012-10-07,239.0175
2012-10-08,239.215833
2012-10-09,239.303333
2012-10-10,239.524167
2012-10-11,239.365417
2012-10-12,238.55
2012-10-13,238.620833
2012-10-14,239.028333
2012-10-15,239.334583
2012-10-16,238.905417
2012-10-17,238.543333
2012-10-18,237.935833
2012-10-19,237.56625
2012-10-20,238.3475
2012-10-21,238.399167
2012-10-22,238.627083
2012-10-23,238.3425
2012-10-24,238.312917
2012-10-25,237.57625
2012-10-26,237.280417
2012-10-27,237.862083
2012-10-28,238.194167
2012-10-29,238.332917
2012-10-30,238.35625
2012-10-31,238.432917
2012-11-01,237.815
2012-11-02,237.27125
2012-11-03,237.80875
2012-11-04,237.952083
2012-11-05,237.90375
2012-11-06,238.0775
2012-11-07,237.978333
2012-11-08,237.604583
2012-11-09,237.664167
2012-11-10,238.01875
2012-11-11,238.117083
2012-11-12,238.093333
2012-11-13,237.990417
2012-11-14,237.98
2012-11-15,237.693333
2012-11-16,237.139167
2012-11-17,237.550833
2012-11-18,237.80375
2012-11-19,238.089583
2012-11-20,237.839583
2012-11-21,237.896667
2012-11-22,237.979167
2012-11-23,237.490417
2012-11-24,237.377083
2012-11-25,237.415833
2012-11-26,237.65375
2012-11-27,237.134583
2012-11-28,236.872083
2012-11-29,237.026667
2012-11-30,236.872917
2012-12-01,237.712917
2012-12-02,238.078333
2012-12-03,238.214583
2012-12-04,238.075417
2012-12-05,238.1
2012-12-06,237.624583
2012-12-07,236.9675
2012-12-08,237.235833
2012-12-09,237.46
2012-12-10,237.657083
2012-12-11,237.111667
2012-12-12,237.182917
2012-12-13,237.007917
2012-12-14,236.7525
2012-12-15,236.805417
2012-12-16,236.897083
2012-12-17,236.827083
2012-12-18,236.93
2012-12-19,236.695833
2012-12-20,236.209167
2012-12-21,235.8925
2012-12-22,235.558333
2012-12-23,235.260833
2012-12-24,236.652917
2012-12-25,237.86
2012-12-26,237.7725
2012-12-27,237.32625
2012-12-28,236.735
2012-12-29,236.903333
2012-12-30,236.923333
2012-12-31,237.37375
2013-01-01,237.683333
2013-01-02,237.630833
2013-01-03,237.410417
2013-01-04,236.88625
2013-01-05,237.365417
2013-01-06,238.07
2013-01-07,238.252917
2013-01-08,238.009583
2013-01-09,237.447083
2013-01-10,237.208333
2013-01-11,237.072917
2013-01-12,237.467083
2013-01-13,238.089583
2013-01-14,238.214583
2013-01-15,237.948333
2013-01-16,237.899167
2013-01-17,237.526667
2013-01-18,237.308333
2013-01-19,237.92125
2013-01-20,238.362083
2013-01-21,238.531667
2013-01-22,238.6675
2013-01-23,238.577917
2013-01-24,238.207917
2013-01-25,237.784583
2013-01-26,238.278333
2013-01-27,237.922083
2013-01-28,237.25
2013-01-29,237.215417
2013-01-30,237.1425
2013-01-31,237.130833
2013-02-01,236.88125
2013-02-02,237.352917
2013-02-03,237.872917
2013-02-04,238.395833
2013-02-05,238.66875
2013-02-06,238.16875
2013-02-07,237.7275
2013-02-08,236.756667
2013-02-09,237.5375
2013-02-10,238.119167
2013-02-11,238.453333
2013-02-12,238.859167
2013-02-13,239.27625
2013-02-14,239.323333
2013-02-15,238.32
2013-02-16,239.175
2013-02-17,239.076667
2013-02-18,238.690417
2013-02-19,238.507083
2013-02-20,239.045
2013-02-21,238.767917
2013-02-22,238.533333
2013-02-23,239.385833
2013-02-24,239.408333
2013-02-25,239.311292
2013-02-26,239.44
2013-02-27,239.69125
2013-02-28,238.962083
2013-03-01,238.650417
2013-03-02,239.234583
2013-03-03,239.549167
2013-03-04,239.73125
2013-03-05,239.754583
2013-03-06,239.73225
2013-03-07,239.124583
2013-03-08,238.436667
2013-03-09,239.22125
2013-03-10,239.39625
2013-03-11,239.605833
2013-03-12,239.733333
2013-03-13,240.1875
2013-03-14,240.145833
2013-03-15,239.64625
2013-03-16,240.232917
2013-03-17,240.79375
2013-03-18,240.757917
2013-03-19,240.590417
2013-03-20,240.584167
2013-03-21,240.089583
2013-03-22,239.309583
2013-03-23,239.910833
2013-03-24,240.349583
2013-03-25,240.46625
2013-03-26,240.562875
2013-03-27,240.75325
2013-03-28,240.152833
2013-03-29,239.398583
2013-03-30,240.193208
2013-03-31,240.390583
2013-04-01,240.385625
2013-04-02,240.5455
2013-04-03,240.576
2013-04-04,240.526417
2013-04-05,240.552833
2013-04-06,240.9555
2013-04-07,241.365667
2013-04-08,241.30475
2013-04-09,241.182042
2013-04-10,240.866208
2013-04-11,240.975375
2013-04-12,239.264958
2013-04-13,240.410833
2013-04-14,240.871208
2013-04-15,240.860375
2013-04-16,240.758667
2013-04-17,240.801125
2013-04-18,240.596125
2013-04-19,239.649667
2013-04-20,240.147458
2013-04-21,240.715375
2013-04-22,241.230417
2013-04-23,241.471417
2013-04-24,241.71675
2013-04-25,241.547375
2013-04-26,239.921667
2013-04-27,240.589917
2013-04-28,240.523542
2013-04-29,240.358042
2013-04-30,240.653792
2013-05-01,240.461958
2013-05-02,240.032167
2013-05-03,239.315167
2013-05-04,239.936208
2013-05-05,239.834458
2013-05-06,239.817042
2013-05-07,239.787958
2013-05-08,239.712125
2013-05-09,239.505583
2013-05-10,239.368417
2013-05-11,239.762708
2013-05-12,239.80875
2013-05-13,239.744125
2013-05-14,239.78025
2013-05-15,239.95375
2013-05-16,240.013083
2013-05-17,239.07475
2013-05-18,239.807458
2013-05-19,240.111
2013-05-20,240.133625
2013-05-21,239.750083
2013-05-22,239.281
2013-05-23,238.803417
2013-05-24,238.376917
2013-05-25,238.890792
2013-05-26,239.743875
2013-05-27,239.938375
2013-05-28,239.838708
2013-05-29,239.973708
2013-05-30,239.492458
2013-05-31,238.530125
2013-06-01,239.2795
2013-06-02,239.811417
2013-06-03,239.88575
2013-06-04,239.930667
2013-06-05,240.083875
2013-06-06,239.88725
2013-06-07,238.925417
2013-06-08,239.693542
2013-06-09,240.2025
2013-06-10,239.934292
2013-06-11,240.200083
2013-06-12,240.215625
2013-06-13,239.77225
2013-06-14,238.355458
2013-06-15,239.120292
2013-06-16,239.360917
2013-06-17,239.875542
2013-06-18,240.021542
2013-06-19,239.635625
2013-06-20,239.830542
2013-06-21,239.329417
2013-06-22,239.840958
2013-06-23,240.18225
2013-06-24,240.1935
2013-06-25,239.995417
2013-06-26,239.813792
2013-06-27,239.52325
2013-06-28,238.750958
2013-06-29,239.287333
2013-06-30,239.738333
2013-07-01,239.856
2013-07-02,240.003208
2013-07-03,240.152292
2013-07-04,239.840792
2013-07-05,238.663417
2013-07-06,239.218917
2013-07-07,239.599875
2013-07-08,239.472917
2013-07-09,239.284
2013-07-10,239.018167
2013-07-11,239.710917
2013-07-12,239.578792
2013-07-13,239.557292
2013-07-14,239.844833
2013-07-15,239.735458
2013-07-16,239.311625
2013-07-17,239.042958
2013-07-18,238.8845
2013-07-19,237.898875
2013-07-20,238.598583
2013-07-21,238.40075
2013-07-22,238.614417
2013-07-23,238.519125
2013-07-24,238.886
2013-07-25,238.34525
2013-07-26,237.679417
2013-07-27,238.019208
2013-07-28,238.157583
2013-07-29,238.287042
2013-07-30,238.43825
2013-07-31,238.68675
2013-08-01,238.673
2013-08-02,238.293792
2013-08-03,238.661458
2013-08-04,239.075542
2013-08-05,238.861042
2013-08-06,239.038042
2013-08-07,239.277875
2013-08-08,238.725625
2013-08-09,238.243875
2013-08-10,238.580625
2013-08-11,239.138542
2013-08-12,238.93225
2013-08-13,239.186375
2013-08-14,239.562375
2013-08-15,239.568083
2013-08-16,238.429875
2013-08-17,238.856792
2013-08-18,239.174417
2013-08-19,239.357583
2013-08-20,239.370667
2013-08-21,239.593375
2013-08-22,238.9905
2013-08-23,237.978
2013-08-24,238.473792
2013-08-25,238.552083
2013-08-26,237.921208
2013-08-27,237.379125
2013-08-28,236.820708
2013-08-29,236.539917
2013-08-30,236.235083
2013-08-31,237.833458
2013-09-01,238.361875
2013-09-02,238.048958
2013-09-03,238.406833
2013-09-04,238.1485
2013-09-05,237.4505
2013-09-06,236.518792
2013-09-07,237.505958
2013-09-08,237.630583
2013-09-09,237.612167
2013-09-10,237.92625
2013-09-11,237.949333
2013-09-12,237.46
2013-09-13,236.980958
2013-09-14,237.535375
2013-09-15,238.623292
2013-09-16,238.813583
2013-09-17,238.916708
2013-09-18,238.9885
2013-09-19,238.825542
2013-09-20,238.096667
2013-09-21,238.925875
2013-09-22,239.413333
2013-09-23,239.646083
2013-09-24,239.642375
2013-09-25,239.666167
2013-09-26,239.3285
2013-09-27,238.675333
2013-09-28,239.072458
2013-09-29,239.233333
2013-09-30,239.046417
2013-10-01,239.321208
2013-10-02,239.088417
2013-10-03,238.918167
2013-10-04,238.176375
2013-10-05,238.771167
2013-10-06,239.307542
2013-10-07,239.408542
2013-10-08,239.323708
2013-10-09,238.953125
2013-10-10,238.652958
2013-10-11,238.150583
2013-10-12,238.419958
2013-10-13,238.302
2013-10-14,238.339375
2013-10-15,238.154375
2013-10-16,238.154042
2013-10-17,238.06975
2013-10-18,237.917167
2013-10-19,238.447833
2013-10-20,238.617375
2013-10-21,238.541792
2013-10-22,238.548833
2013-10-23,238.37675
2013-10-24,237.979667
2013-10-25,237.649667
2013-10-26,238.184
2013-10-27,238.391375
2013-10-28,238.294125
2013-10-29,237.97775
2013-10-30,237.878667
2013-10-31,237.647125
2013-11-01,236.968958
2013-11-02,237.510458
2013-11-03,237.638667
2013-11-04,237.722042
2013-11-05,237.874292
2013-11-06,238.076667
2013-11-07,238.153542
2013-11-08,237.461792
2013-11-09,238.124792
2013-11-10,238.585375
2013-11-11,238.879042
2013-11-12,238.655
2013-11-13,238.439083
2013-11-14,238.19025
2013-11-15,237.651875
2013-11-16,237.572708
2013-11-17,237.808917
2013-11-18,237.736833
2013-11-19,237.179333
2013-11-20,237.6065
2013-11-21,237.349042
2013-11-22,236.839292
2013-11-23,236.388958
2013-11-24,236.314833
2013-11-25,235.992833
2013-11-26,235.883542
2013-11-27,235.683917
2013-11-28,235.909458
2013-11-29,236.1935
2013-11-30,236.807167
2013-12-01,237.108417
2013-12-02,237.257708
2013-12-03,236.844167
2013-12-04,235.896083
2013-12-05,235.86325
2013-12-06,236.446208
2013-12-07,236.56975
2013-12-08,236.954375
2013-12-09,237.260292
2013-12-10,237.104057
2013-12-11,237.278458
2013-12-12,237.351292
2013-12-13,236.902333
2013-12-14,237.312583
2013-12-15,237.415583
2013-12-16,237.731625
2013-12-17,237.444958
2013-12-18,237.35325
2013-12-19,237.248625
2013-12-20,236.705292
2013-12-21,236.562
2013-12-22,235.554958
2013-12-23,235.219167
2013-12-24,236.130125
2013-12-25,236.56975
2013-12-26,236.003917
2013-12-27,235.681667
2013-12-28,236.645333
2013-12-29,237.797583
2013-12-30,236.926125
2013-12-31,237.058333
2014-01-01,236.7225
2014-01-02,236.361083
2014-01-03,235.696167
2014-01-04,237.205583
2014-01-05,236.98425
2014-01-06,236.813208